sat.trackr.live / text

‹ back to catalog

ONEWEB-0218

NORAD 48214 · 2021-031E

PAYLOAD ACTIVE UNKNOWN

§ Identity

Operator
Country
UK
Launch date
2021-04-25
Launch site
VOSTO
Launch vehicle
Mass (kg)
RCS (m²)

Purposes: comms

External: N2YO · Heavens-Above · Gunter

§ Orbital elements

Epoch: 2026-09-19T18:58:27.000192Z

Period
109.55 min
Inclination
87.8902°
Eccentricity
0.0001334
Mean motion
13.14501250 rev/d
Perigee alt
1,204.8 km
Apogee alt
1,206.8 km
Semi-major
7,583.9 km
B*
5.6618e-4
RAAN
270.8332°
Arg perigee
73.2343°
Mean anomaly
286.8934°
Rev number
26,080

§ Raw data

ONEWEB-02181 48214U 21031E   26262.79059028  .00000223  00000+0  56618-3 0  99992 48214  87.8902 270.8332 0001334  73.2343 286.8934 13.14501250260801

JSON: /api/v1/satellites/48214 · /tle

For live sub-satellite position, see the globe view (requires WebGL).

§ Visibility from observer

Set your observer location to see the next 7 days of passes ≥ 10°. The values pass through the URL so the page stays shareable.

No JS? Fill the form by hand. The geolocation button needs JavaScript.